Location: Riverview Farm Park
(37.0930°N, 76.5291°W)
Time: 06:18:13
(UTC-05:00)

Amateur Radio Satellites - All Passes

Search period start: 25 November 2017 05:48
Search period end: 26 November 2017 05:48
Location: Riverview Farm Park, 37.0930°N, 76.5291°W

Satellite Date Start Highest point End Downlink Frequencies (MHz)
Time Altitude Azimuth
AO-7 25 Nov 05:48:28 05:54:01 20° 306° (NW) 05:59:34 .
XW-2C 25 Nov 05:57:10 06:00:55 53° 100° (E) 06:04:40 145.795 - 145.815
XW-2F 25 Nov 06:03:37 06:07:23 60° 100° (E) 06:11:09 145.980 - 146.000
LilacSat-2 25 Nov 06:04:44 06:08:35 74° 102° (ESE) 06:12:26 437.200
CUTE 1.7 + AOD 2 25 Nov 06:05:50 06:08:14 15° 92° (E) 06:10:38 437.475
KAITUO 1B 25 Nov 06:23:39 06:27:26 85° 103° (ESE) 06:31:13 145.475/437.950
SEEDS 25 Nov 06:27:23 06:29:56 15° 93° (E) 06:32:27 437.485
SO-50 25 Nov 06:42:28 06:46:24 27° 248° (WSW) 06:50:22 436.795
XW-2D 25 Nov 06:50:41 06:53:59 28° 288° (WNW) 06:57:18 145.860 - 145.880
HO-68 25 Nov 06:54:55 07:01:58 55° 101° (ESE) 07:08:56 435.675
YUBILEINY 25 Nov 06:58:17 07:04:56 24° 292° (WNW) 07:11:41 435.215
UWE-3 25 Nov 06:59:02 07:01:53 18° 94° (E) 07:04:44 435.000/436.395/437.385
NUDT-PHONESAT 25 Nov 07:00:42 07:04:02 31° 287° (WNW) 07:07:21 437.300
PCSat 25 Nov 07:01:08 07:03:31 13° 44° (NE) 07:05:55 145.827
XW-2B 25 Nov 07:06:06 07:08:56 20° 290° (WNW) 07:11:45 145.730 - 145.750
CUTE-I 25 Nov 07:08:23 07:13:25 42° 290° (WNW) 07:18:25 437.470
XW-2A 25 Nov 07:12:57 07:15:33 20° 96° (E) 07:18:08 145.665 - 145.685
FALCONSAT 3 25 Nov 07:14:19 07:17:19 24° 157° (SSE) 07:20:19 435.103
STRAND 1 25 Nov 07:20:25 07:25:20 45° 261° (W) 07:30:16 437.568
FO-29 25 Nov 07:21:22 07:27:50 49° 69° (ENE) 07:35:00 435.910
AO-73 25 Nov 07:27:23 07:30:07 17° 94° (E) 07:32:53 145.935
Oscar 11 25 Nov 07:38:52 07:41:30 16° 93° (E) 07:44:07 .
CUTE 1.7 + AOD 2 25 Nov 07:40:11 07:44:13 41° 287° (WNW) 07:48:14 437.475
CUBEBUG 2 25 Nov 07:47:10 07:51:16 61° 285° (WNW) 07:55:21 437.445
AAUSAT CUBESAT 2 25 Nov 07:54:19 07:58:30 70° 101° (E) 08:02:40 437.432
UNISAT 6 25 Nov 07:55:17 07:57:17 13° 65° (ENE) 07:59:16 437.425
TIGRISAT 25 Nov 07:58:27 08:00:21 13° 65° (ENE) 08:02:16 435.000
SEEDS 25 Nov 08:01:46 08:05:43 38° 287° (WNW) 08:09:39 437.485
ZACube-1 25 Nov 08:14:10 08:18:20 73° 101° (ESE) 08:22:32 437.345
UWE-3 25 Nov 08:34:43 08:38:22 31° 288° (WNW) 08:42:02 435.000/436.395/437.385
PCSat 25 Nov 08:42:18 08:47:45 83° 62° (ENE) 08:53:10 145.827
HO-68 25 Nov 08:43:27 08:49:13 27° 298° (WNW) 08:54:57 435.675
XW-2A 25 Nov 08:45:46 08:48:04 17° 290° (WNW) 08:50:23 145.665 - 145.685
FALCONSAT 3 25 Nov 08:52:27 08:56:05 58° 171° (S) 08:59:43 435.103
AO-73 25 Nov 09:02:40 09:06:24 33° 288° (WNW) 09:10:11 145.935
PRISM 25 Nov 09:04:14 09:07:29 23° 69° (ENE) 09:10:46 437.425
FO-29 25 Nov 09:07:21 09:13:04 29° 268° (W) 09:19:21 435.910
EO-88 25 Nov 09:13:42 09:15:56 15° 94° (E) 09:18:10 145.990 - 145.960
Oscar 11 25 Nov 09:13:43 09:17:45 39° 287° (WNW) 09:21:47 .
DELFI C3 25 Nov 09:17:09 09:20:56 40° 98° (E) 09:24:40 145.870
Max Valier Satellite 25 Nov 09:25:15 09:28:37 33° 98° (E) 09:31:57 145.860
UNISAT 6 25 Nov 09:29:02 09:33:31 56° 260° (W) 09:37:54 437.425
TIGRISAT 25 Nov 09:32:04 09:36:33 57° 259° (W) 09:40:56 435.000
BEESAT 2 25 Nov 10:03:17 10:04:26 11° 44° (NE) 10:05:35 435.950
POLYITAN 1 25 Nov 10:13:58 10:16:20 15° 66° (ENE) 10:18:43 437.675
BEESAT 3 25 Nov 10:15:56 10:19:44 45° 56° (NE) 10:23:27 437.485
AIST 2D 25 Nov 10:18:11 10:21:28 45° 75° (ENE) 10:24:49 435.315
PCSat 25 Nov 10:29:02 10:30:20 11° 258° (WSW) 10:31:40 145.827
FALCONSAT 3 25 Nov 10:31:24 10:35:04 63° 186° (S) 10:38:43 435.103
QB50P2 25 Nov 10:36:10 10:39:51 29° 71° (ENE) 10:43:32 145.880/145.840
PRISM 25 Nov 10:39:12 10:42:37 25° 264° (W) 10:46:03 437.425
EO-88 25 Nov 10:46:26 10:49:34 27° 288° (WNW) 10:52:43 145.990 - 145.960
DELFI C3 25 Nov 10:53:16 10:55:16 14° 293° (WNW) 10:57:16 145.870
LO-87 25 Nov 10:55:29 10:58:45 35° 98° (E) 11:01:59 145.935 - 145.965
Max Valier Satellite 25 Nov 11:00:12 11:02:06 14° 292° (WNW) 11:04:01 145.860
ESTCUBE 1 25 Nov 11:08:10 11:12:25 38° 98° (E) 11:16:38 437.505/2401.250
DUCHIFAT 1 25 Nov 11:17:31 11:21:40 62° 74° (ENE) 11:25:49 145.980
SPROUT 25 Nov 11:30:19 11:32:34 14° 93° (E) 11:34:49 437.525
NANOSAT C BR1 25 Nov 11:30:47 11:35:00 78° 259° (W) 11:39:14 145.865
EO-79 25 Nov 11:30:47 11:35:01 68° 259° (W) 11:39:14 145.935-145.965
BEESAT 2 25 Nov 11:38:39 11:42:39 75° 242° (WSW) 11:46:36 435.950
POLYITAN 1 25 Nov 11:47:43 11:51:44 42° 261° (W) 11:55:45 437.675
AO-91 25 Nov 11:49:03 11:52:58 21° 67° (ENE) 11:56:51 145.960
BUGSAT 1 25 Nov 11:51:39 11:55:26 34° 72° (ENE) 11:59:11 437.445
BEESAT 3 25 Nov 11:55:11 11:56:48 12° 252° (WSW) 11:58:24 437.485
AO-85 25 Nov 11:57:19 12:02:03 63° 58° (ENE) 12:07:07 145.980
Gurwin Techsat 1B 25 Nov 12:03:06 12:06:58 21° 65° (ENE) 12:10:52 435.225
FALCONSAT 3 25 Nov 12:10:40 12:13:53 29° 201° (SSW) 12:17:07 435.103
QB50P2 25 Nov 12:12:29 12:15:37 20° 265° (W) 12:18:46 145.880/145.840
O/OREOS (USA 219) 25 Nov 12:28:15 12:32:51 89° 277° (W) 12:37:29 437.305
LO-87 25 Nov 12:30:29 12:31:47 12° 293° (WNW) 12:33:04 145.935 - 145.965
Oscar 19 25 Nov 12:37:52 12:42:54 62° 73° (ENE) 12:47:58 437.125/150
VELOX 1 25 Nov 12:43:54 12:48:20 64° 102° (ESE) 12:52:43 145.980
ESTCUBE 1 25 Nov 12:45:46 12:48:54 19° 293° (WNW) 12:52:02 437.505/2401.250
NO-84 25 Nov 12:49:04 12:52:15 37° 127° (SE) 12:55:42 435.350 FM
50 SAT 25 Nov 12:53:03 12:54:39 13° 94° (E) 12:56:14 437.505
AO-7 25 Nov 13:00:58 13:06:41 21° 55° (NE) 13:12:25 .
SPROUT 25 Nov 13:04:37 13:08:37 41° 287° (WNW) 13:12:35 437.525
DX 1 25 Nov 13:14:34 13:18:21 28° 97° (E) 13:22:06 434.975-435.025
JUGNU 25 Nov 13:23:38 13:26:17 13° 174° (S) 13:28:55 437.505
AO-91 25 Nov 13:23:47 13:28:59 49° 261° (W) 13:34:11 145.960
BUGSAT 1 25 Nov 13:28:07 13:30:50 17° 266° (W) 13:33:32 437.445
AO-85 25 Nov 13:39:24 13:42:04 15° 251° (WSW) 13:44:48 145.980
Gurwin Techsat 1B 25 Nov 13:41:29 13:46:33 45° 261° (W) 13:51:39 435.225
UKube-1 25 Nov 13:46:08 13:50:12 39° 99° (E) 13:54:14 .
M-CUBED/EXP-1 PRIME 25 Nov 14:03:39 14:07:15 81° 253° (WSW) 14:11:10 437.505
Oscar 19 25 Nov 14:20:11 14:22:36 13° 268° (W) 14:25:01 437.125/150
VELOX 1 25 Nov 14:22:48 14:24:10 11° 297° (WNW) 14:25:33 145.980
50 SAT 25 Nov 14:24:05 14:26:41 23° 289° (WNW) 14:29:17 437.505
NO-84 25 Nov 14:26:44 14:29:40 23° 327° (NNW) 14:32:48 435.350 FM
MOZHAYETS 4 25 Nov 14:35:34 14:39:22 25° 96° (E) 14:43:10
ITAMSAT 1 25 Nov 14:40:48 14:45:52 53° 72° (ENE) 14:50:57 435.822/435.867
AO-7 25 Nov 14:50:10 14:58:27 84° 253° (WSW) 15:06:48 .
DX 1 25 Nov 14:50:55 14:54:21 23° 292° (WNW) 14:57:46 434.975-435.025
BEESAT 25 Nov 14:56:00 15:00:12 31° 97° (E) 15:04:22 436.000
DOVE 4 25 Nov 15:00:44 15:03:15 14° 63° (ENE) 15:05:47 437.250
CUBESAT XI-V 25 Nov 15:02:41 15:03:29 10° 90° (E) 15:04:17 437.345
ITUPSAT 1 25 Nov 15:08:50 15:13:19 41° 99° (E) 15:17:48 437.325
JUGNU 25 Nov 15:11:41 15:14:27 13° 185° (S) 15:17:11 437.505
YUBILEINY 25 Nov 15:12:19 15:19:53 30° 71° (ENE) 15:27:22 435.215
SRMSAT 25 Nov 15:19:10 15:19:53 10° 168° (SSE) 15:20:36 437.500
UKube-1 25 Nov 15:23:08 15:25:52 17° 294° (WNW) 15:28:36 .
RS-15 25 Nov 15:39:18 15:45:22 15° 96° (E) 15:51:26 29.354- 29.394
MOZHAYETS 4 25 Nov 16:12:35 16:16:26 27° 290° (WNW) 16:20:17
ITAMSAT 1 25 Nov 16:22:19 16:25:35 17° 267° (W) 16:28:53 435.822/435.867
BEESAT 25 Nov 16:33:58 16:37:48 25° 292° (WNW) 16:41:36 436.000
DOVE 4 25 Nov 16:35:07 16:40:11 72° 259° (W) 16:45:28 437.250
CUBESAT XI-V 25 Nov 16:36:34 16:41:15 68° 285° (WNW) 16:45:54 437.345
XW-2C 25 Nov 16:36:58 16:39:35 18° 69° (ENE) 16:42:13 145.795 - 145.815
XW-2F 25 Nov 16:42:47 16:45:32 20° 70° (ENE) 16:48:17 145.980 - 146.000
LilacSat-2 25 Nov 16:44:43 16:47:48 25° 71° (ENE) 16:50:55 437.200
ITUPSAT 1 25 Nov 16:47:31 16:50:49 19° 294° (WNW) 16:54:06 437.325
AO-7 25 Nov 16:48:18 16:52:14 14° 269° (W) 16:56:11 .
CUTE-I 25 Nov 16:48:40 16:53:14 29° 68° (ENE) 16:57:50 437.470
KAITUO 1B 25 Nov 17:01:31 17:04:36 26° 71° (ENE) 17:07:42 145.475/437.950
SRMSAT 25 Nov 17:05:13 17:08:11 14° 178° (S) 17:11:09 437.500
YUBILEINY 25 Nov 17:08:29 17:17:00 55° 270° (W) 17:25:29 435.215
HO-68 25 Nov 17:21:31 17:27:46 33° 64° (ENE) 17:34:01 435.675
KKS-1 25 Nov 17:27:45 17:32:13 90° 332° (NNW) 17:36:40 437.445
XW-2D 25 Nov 17:28:46 17:32:29 87° 258° (WSW) 17:36:15 145.860 - 145.880
NUDT-PHONESAT 25 Nov 17:36:39 17:40:16 75° 77° (ENE) 17:43:56 437.300
STARS 25 Nov 17:37:47 17:41:59 43° 99° (E) 17:46:07 437.465
RS-15 25 Nov 17:43:30 17:55:42 75° 115° (ESE) 18:07:55 29.354- 29.394
XW-2B 25 Nov 17:43:53 17:47:32 56° 260° (W) 17:51:13 145.730 - 145.750
ISS 25 Nov 17:50:02 17:52:09 16° 129° (SE) 17:54:17 437.550
UWE-3 25 Nov 17:55:05 17:56:54 12° 66° (ENE) 17:58:42 435.000/436.395/437.385
XW-2C 25 Nov 18:10:29 18:13:34 24° 264° (W) 18:16:41 145.795 - 145.815
XW-2F 25 Nov 18:16:32 18:19:29 22° 265° (W) 18:22:27 145.980 - 146.000
LilacSat-2 25 Nov 18:19:24 18:22:02 18° 266° (W) 18:24:41 437.200
AO-73 25 Nov 18:22:43 18:23:40 11° 65° (ENE) 18:24:36 145.935
nSIGHT-1 25 Nov 18:24:37 18:27:44 51° 136° (SE) 18:30:53 .
CUTE-I 25 Nov 18:28:24 18:33:09 32° 263° (W) 18:37:56 437.470
CUTE 1.7 + AOD 2 25 Nov 18:29:54 18:34:05 81° 256° (WSW) 18:38:19 437.475
KAITUO 1B 25 Nov 18:36:08 18:38:33 17° 266° (W) 18:40:58 145.475/437.950
AAUSAT CUBESAT 2 25 Nov 18:42:05 18:45:46 32° 72° (ENE) 18:49:28 437.432
CUBEBUG 2 25 Nov 18:42:14 18:46:47 81° 77° (ENE) 18:51:13 437.445
SEEDS 25 Nov 18:50:24 18:54:33 78° 257° (WSW) 18:58:46 437.485
SRMSAT 25 Nov 18:54:20 18:56:30 12° 189° (S) 18:58:40 437.500
ZACube-1 25 Nov 19:07:34 19:11:36 41° 73° (ENE) 19:15:33 437.345
HO-68 25 Nov 19:08:27 19:15:14 44° 260° (W) 19:22:04 435.675
XW-2A 25 Nov 19:13:15 19:16:34 82° 257° (WSW) 19:19:54 145.665 - 145.685
STARS 25 Nov 19:15:19 19:17:55 16° 294° (WNW) 19:20:30 437.465
SO-50 25 Nov 19:15:47 19:18:17 15° 109° (ESE) 19:20:48 436.795
NO-84 25 Nov 19:23:39 19:26:26 17° 29° (NNE) 19:29:15 435.350 FM
ISS 25 Nov 19:25:14 19:28:22 43° 324° (NW) 19:31:31 437.550
UWE-3 25 Nov 19:28:35 19:32:54 54° 260° (W) 19:37:08 435.000/436.395/437.385
STRAND 1 25 Nov 19:32:47 19:37:54 74° 103° (ESE) 19:42:59 437.568
AO-73 25 Nov 19:55:10 19:59:23 59° 260° (W) 20:03:31 145.935
RS-15 25 Nov 19:58:16 20:09:17 36° 318° (NW) 20:20:16 29.354- 29.394
DELFI C3 25 Nov 20:00:52 20:03:31 17° 68° (ENE) 20:06:12 145.870
nSIGHT-1 25 Nov 20:01:50 20:04:10 18° 332° (NNW) 20:06:30 .
Max Valier Satellite 25 Nov 20:03:54 20:05:00 11° 67° (ENE) 20:06:07 145.860
Oscar 11 25 Nov 20:05:35 20:09:52 70° 259° (W) 20:14:10 .
FO-29 25 Nov 20:18:13 20:25:47 55° 99° (E) 20:32:41 435.910
AAUSAT CUBESAT 2 25 Nov 20:18:30 20:21:15 17° 267° (W) 20:24:01 437.432
ZACube-1 25 Nov 20:45:42 20:48:01 14° 267° (W) 20:50:17 437.345
SO-50 25 Nov 20:53:58 20:58:17 49° 304° (NW) 21:02:40 436.795
NO-84 25 Nov 21:00:01 21:04:17 89° 205° (SSW) 21:08:32 435.350 FM
O/OREOS (USA 219) 25 Nov 21:03:33 21:05:13 12° 55° (NE) 21:06:52 437.305
ISS 25 Nov 21:05:11 21:05:32 10° 342° (NNW) 21:05:53 437.550
STRAND 1 25 Nov 21:14:19 21:16:24 12° 298° (WNW) 21:18:28 437.568
EO-88 25 Nov 21:20:50 21:24:26 83° 76° (ENE) 21:28:05 145.990 - 145.960
UNISAT 6 25 Nov 21:22:56 21:26:47 32° 97° (E) 21:30:37 437.425
TIGRISAT 25 Nov 21:25:51 21:29:40 32° 97° (E) 21:33:27 435.000
LO-87 25 Nov 21:31:12 21:32:17 11° 67° (ENE) 21:33:20 145.935 - 145.965
DELFI C3 25 Nov 21:34:29 21:37:59 30° 263° (W) 21:41:32 145.870
Max Valier Satellite 25 Nov 21:34:59 21:38:25 40° 261° (W) 21:41:52 145.860
PCSat 25 Nov 21:41:23 21:44:06 14° 103° (ESE) 21:46:49 145.827
FO-29 25 Nov 22:03:51 22:10:16 29° 297° (WNW) 22:16:17 435.910
ESTCUBE 1 25 Nov 22:05:42 22:09:27 27° 69° (ENE) 22:13:13 437.505/2401.250
RS-15 25 Nov 22:19:59 22:27:04 17° 352° (N) 22:34:03 29.354- 29.394
PRISM 25 Nov 22:21:37 22:25:39 48° 100° (E) 22:29:38 437.425
O/OREOS (USA 219) 25 Nov 22:40:35 22:45:06 67° 252° (WSW) 22:49:33 437.305
UNISAT 6 25 Nov 23:00:18 23:03:15 18° 292° (WNW) 23:06:12 437.425
LO-87 25 Nov 23:01:53 23:05:16 39° 261° (W) 23:08:40 145.935 - 145.965
TIGRISAT 25 Nov 23:03:07 23:06:06 19° 292° (WNW) 23:09:05 435.000
DUCHIFAT 1 25 Nov 23:05:55 23:07:04 11° 91° (E) 23:08:12 145.980
AIST 2D 25 Nov 23:17:39 23:21:12 80° 102° (ESE) 23:24:44 435.315
NANOSAT C BR1 25 Nov 23:17:57 23:20:55 19° 94° (E) 23:23:53 145.865
EO-79 25 Nov 23:18:06 23:21:21 22° 95° (E) 23:24:35 145.935-145.965
PCSat 25 Nov 23:21:27 23:26:50 68° 299° (WNW) 23:32:15 145.827
POLYITAN 1 25 Nov 23:34:28 23:38:17 33° 98° (E) 23:42:04 437.675
VELOX 1 25 Nov 23:38:40 23:42:50 42° 72° (ENE) 23:47:02 145.980
ESTCUBE 1 25 Nov 23:42:29 23:46:10 25° 264° (W) 23:49:51 437.505/2401.250
SPROUT 25 Nov 23:54:52 23:59:09 77° 259° (W) 00:03:26 437.525
QB50P2 25 Nov 23:57:57 00:02:09 76° 101° (ESE) 00:06:20 145.880/145.840
PRISM 25 Nov 23:58:39 00:00:27 13° 295° (WNW) 00:02:14 437.425
BEESAT 3 26 Nov 00:04:59 00:06:47 13° 108° (ESE) 00:08:34 437.485
DX 1 26 Nov 00:08:23 00:11:31 20° 67° (ENE) 00:14:40 434.975-435.025
ISS 26 Nov 00:19:15 00:21:05 14° 23° (NNE) 00:22:53 437.550
RS-15 26 Nov 00:36:55 00:46:04 24° 29° (NNE) 00:54:49 29.354- 29.394
UKube-1 26 Nov 00:38:33 00:42:06 25° 69° (ENE) 00:45:41 .
DUCHIFAT 1 26 Nov 00:38:57 00:42:59 51° 286° (WNW) 00:47:00 145.980
50 SAT 26 Nov 00:47:45 00:50:55 57° 76° (ENE) 00:54:06 437.505
Oscar 19 26 Nov 00:52:04 00:56:22 26° 96° (E) 01:00:38 437.125/150
NANOSAT C BR1 26 Nov 00:52:58 00:56:38 30° 289° (WNW) 01:00:17 145.865
nSIGHT-1 26 Nov 00:53:26 00:56:13 26° 32° (NNE) 00:58:59 .
EO-79 26 Nov 00:53:32 00:57:02 26° 290° (WNW) 01:00:33 145.935-145.965
PCSat 26 Nov 01:10:04 01:11:15 11° 318° (NW) 01:12:27 145.827
BUGSAT 1 26 Nov 01:10:07 01:14:08 80° 101° (ESE) 01:18:07 437.445
POLYITAN 1 26 Nov 01:10:58 01:13:46 18° 293° (WNW) 01:16:34 437.675
VELOX 1 26 Nov 01:16:46 01:19:26 16° 267° (W) 01:22:05 145.980
AO-91 26 Nov 01:17:11 01:21:12 40° 97° (E) 01:24:49 145.960
BEESAT 2 26 Nov 01:27:31 01:31:00 30° 113° (ESE) 01:34:34 435.950
MOZHAYETS 4 26 Nov 01:35:47 01:39:02 20° 67° (ENE) 01:42:18
BEESAT 3 26 Nov 01:40:02 01:43:52 46° 303° (WNW) 01:47:45 437.485
DX 1 26 Nov 01:43:29 01:47:26 33° 262° (W) 01:51:25 434.975-435.025
ISS 26 Nov 01:54:41 01:57:58 87° 46° (NE) 02:01:13 437.550
Gurwin Techsat 1B 26 Nov 01:59:33 02:04:54 85° 104° (ESE) 02:10:13 435.225
BEESAT 26 Nov 02:00:16 02:04:20 29° 69° (ENE) 02:08:24 436.000
AO-85 26 Nov 02:10:42 02:14:02 28° 113° (ESE) 02:17:28 145.980
ITUPSAT 1 26 Nov 02:13:18 02:17:42 38° 71° (ENE) 02:22:07 437.325
UKube-1 26 Nov 02:14:30 02:18:01 24° 264° (W) 02:21:34 .
nSIGHT-1 26 Nov 02:29:38 02:32:23 27° 228° (SW) 02:35:07 .
Oscar 19 26 Nov 02:31:02 02:35:39 34° 291° (WNW) 02:40:16 437.125/150
RS-15 26 Nov 02:49:20 03:01:11 71° 57° (ENE) 03:12:19 29.354- 29.394
AO-7 26 Nov 02:54:35 03:02:14 38° 99° (E) 03:09:49 .
AO-91 26 Nov 02:54:58 02:57:10 14° 296° (WNW) 02:59:16 145.960
ITAMSAT 1 26 Nov 02:56:36 03:00:34 22° 95° (E) 03:04:30 435.822/435.867
BEESAT 2 26 Nov 03:05:35 03:08:44 22° 309° (NW) 03:11:56 435.950
MOZHAYETS 4 26 Nov 03:11:44 03:15:55 36° 262° (W) 03:20:06
M-CUBED/EXP-1 PRIME 26 Nov 03:17:16 03:21:55 80° 289° (WNW) 03:26:31 437.505
CUBESAT XI-V 26 Nov 03:37:14 03:41:49 90° 168° (SSE) 03:46:28 437.345
BEESAT 26 Nov 03:38:02 03:42:01 26° 264° (W) 03:46:02 436.000
Gurwin Techsat 1B 26 Nov 03:42:18 03:44:04 12° 300° (WNW) 03:45:50 435.225
SO-50 26 Nov 03:49:12 03:50:14 11° 41° (NE) 03:51:16 436.795
AO-85 26 Nov 03:51:24 03:54:25 21° 311° (NW) 03:57:32 145.980
ITUPSAT 1 26 Nov 03:52:10 03:55:36 20° 265° (W) 03:59:04 437.325
YUBILEINY 26 Nov 04:10:30 04:18:15 37° 86° (E) 04:26:03 435.215
KKS-1 26 Nov 04:23:10 04:27:35 63° 74° (ENE) 04:32:02 437.445
STARS 26 Nov 04:32:10 04:36:01 30° 70° (ENE) 04:39:51 437.465
ITAMSAT 1 26 Nov 04:35:18 04:40:08 40° 290° (WNW) 04:44:56 435.822/435.867
DOVE 4 26 Nov 04:36:48 04:41:30 39° 97° (E) 04:45:55 437.250
AO-7 26 Nov 04:47:11 04:54:58 46° 296° (WNW) 05:02:47 .
RS-15 26 Nov 05:03:10 05:12:26 29° 257° (WSW) 05:21:25 29.354- 29.394
XW-2D 26 Nov 05:05:17 05:06:30 11° 92° (E) 05:07:43 145.860 - 145.880
CUTE-I 26 Nov 05:09:18 05:11:45 13° 91° (E) 05:14:11 437.470
XW-2B 26 Nov 05:19:10 05:21:40 17° 94° (E) 05:24:09 145.730 - 145.750
SO-50 26 Nov 05:26:46 05:31:27 77° 60° (ENE) 05:36:09 436.795
